Location: Bletchingley
(51.2333°N, 0.1000°W)
Time: 12:42:35
(UTC+00:00)

Cosmos 2151 Rocket - Pass Details

Date: 18 September 2020
Orbit: 618 x 642 km, 82.5° (Epoch: 25 October)

Event Time Altitude Azimuth Distance (km) Brightness Sun altitude
Rises 20:22:41 0° 202° (SSW) 2,905 6.9 -21.0°
Reaches altitude 10° 20:24:57 10° 207° (SSW) 2,007 6.1 -21.3°
Maximum altitude 20:29:18 52° 285° (WNW) 788 4.4 -21.9°
Drops below altitude 10° 20:33:44 10° 2° (N) 2,037 6.6 -22.4°
Sets 20:36:03 0° 8° (N) 2,954 7.4 -22.7°
